Weather History for KDDH - October, 2011

Change the Weather History Date:

Wednesday, October 12, 2011

  Actual Average Record
Temperature  
Mean Temperature 58 °F 49 °F  
Max Temperature 63 °F 60 °F 75 °F (2001)
Min Temperature 54 °F 37 °F 28 °F (2012)
Degree Days  
Heating Degree Days 7 16  
Month to date heating degree days 172  
Since 1 July heating degree days 450  
Cooling Degree Days 0 0  
Month to date cooling degree days 0  
Year to date cooling degree days 311  
Growing Degree Days 8 (Base 50)    
Moisture  
Dew Point 44 °F    
Average Humidity 63    
Maximum Humidity 77    
Minimum Humidity 50    
Precipitation  
Precipitation 0.00 in 0.12 in 0.70 in (2005)
Month to date precipitation 1.48  
Year to date precipitation 32.59  
Sea Level Pressure  
Sea Level Pressure 30.14 in    
Wind  
Wind Speed 5 mph (ESE)    
Max Wind Speed 13 mph    
Max Gust Speed 23 mph    
Visibility 10 miles    
Events      
T = Trace of Precipitation, MM = Missing Value Source: NWS Daily Summary

Daily Weather History Graph

Daily Weather History Graph

Search for Another Location

Airport or City:

Trip Planner

Search our weather history database for the weather conditions in past years. The results will help you decide how hot, cold, wet, or windy it might be!

Date:

Astronomy

Oct. 12, 2011 Rise Set
Actual Time 7:02 AM EDT 6:15 PM EDT
Civil Twilight 6:34 AM EDT 6:44 PM EDT
Nautical Twilight 6:01 AM EDT 7:17 PM EDT
Astronomical Twilight 5:28 AM EDT 7:49 PM EDT
Moon 6:13 PM EDT (10/12) 7:37 AM EDT (10/12)
Length of Visible Light 12h 10m
Length of Day
11h 13m
Full, 100% of the Moon is Illuminated
Oct 12
Full
Oct 19
Last Quarter
Oct 26
New
Nov 2
First Quarter
Nov 10
Full

Hourly Weather History & Observations

Time (EDT) Temp. Dew Point Humidity Pressure Visibility Wind Dir Wind Speed Gust Speed Precip Events Conditions
12:54 AM 57.0 °F 45.0 °F 64% 30.18 in 10.0 mi East 4.6 mph - N/A   Clear
1:54 AM 55.0 °F 45.0 °F 69% 30.17 in 10.0 mi Calm Calm - N/A   Clear
2:54 AM 55.9 °F 46.0 °F 69% 30.17 in 10.0 mi Calm Calm - N/A   Clear
3:54 AM 55.9 °F 46.9 °F 72% 30.18 in 10.0 mi Variable 4.6 mph - N/A   Clear
4:54 AM 55.9 °F 48.0 °F 75% 30.19 in 10.0 mi East 4.6 mph - N/A   Clear
5:54 AM 55.9 °F 48.0 °F 75% 30.19 in 10.0 mi ESE 6.9 mph - N/A   Clear
6:54 AM 55.0 °F 42.1 °F 62% 30.18 in 10.0 mi East 4.6 mph - N/A   Clear
7:54 AM 55.0 °F 39.0 °F 55% 30.20 in 10.0 mi SSE 3.5 mph - N/A   Clear
8:54 AM 57.0 °F 43.0 °F 59% 30.20 in 10.0 mi East 8.1 mph - N/A   Clear
9:54 AM 57.9 °F 44.1 °F 60% 30.20 in 10.0 mi East 8.1 mph - N/A   Clear
10:54 AM 61.0 °F 44.1 °F 54% 30.18 in 10.0 mi SSE 8.1 mph - N/A   Clear
11:54 AM 61.0 °F 43.0 °F 52% 30.17 in 10.0 mi ESE 8.1 mph - N/A   Clear
12:54 PM 61.0 °F 43.0 °F 52% 30.15 in 10.0 mi East 5.8 mph - N/A   Clear
1:54 PM 62.1 °F 43.0 °F 50% 30.13 in 10.0 mi East 4.6 mph - N/A   Clear
3:54 PM 62.1 °F 43.0 °F 50% 30.10 in 10.0 mi ESE 5.8 mph - N/A   Clear
4:54 PM 59.0 °F 43.0 °F 55% 30.10 in 10.0 mi ESE 8.1 mph - N/A   Clear
5:54 PM 57.0 °F 44.1 °F 62% 30.09 in 10.0 mi ESE 8.1 mph - N/A   Overcast
6:54 PM 55.9 °F 45.0 °F 67% 30.09 in 10.0 mi ESE 12.7 mph 19.6 mph 0.00 in   Overcast
7:54 PM 55.0 °F 45.0 °F 69% 30.07 in 10.0 mi ESE 11.5 mph 20.7 mph N/A   Overcast
8:54 PM 54.0 °F 44.1 °F 69% 30.07 in 10.0 mi East 12.7 mph 23.0 mph N/A   Overcast
9:54 PM 54.0 °F 44.1 °F 69% 30.07 in 10.0 mi East 12.7 mph 19.6 mph N/A   Overcast
10:54 PM 55.0 °F 46.0 °F 72% 30.05 in 10.0 mi Calm Calm - N/A   Overcast
11:54 PM 54.0 °F 46.9 °F 77% 30.04 in 10.0 mi East 10.4 mph - N/A   Overcast